Regional Weather Roundup
Issued by NWS Cleveland, OH

Home | Current Version | Previous Version | Graphics & Text | Print | Product List | Glossary On
Versions: 1 2 3 4 5 6 7 8 9 10 11 12 13 14 15 16 17 18 19 20 21 22 23 24 25 26 27 28 29 30 31 32 33 34 35 36 37 38 39 40 41 42 43 44 45 46 47 48 49 50
000
ASUS41 KCLE 280402
RWRCLE
OHIO REGIONAL WEATHER ROUNDUP
NATIONAL WEATHER SERVICE CLEVELAND, OH
1200 AM EDT FRI AUG 28 2015

NOTE: "FAIR" INDICATES FEW OR NO CLOUDS BELOW 12,000 FEET WITH NO
SIGNIFICANT WEATHER AND/OR OBSTRUCTIONS TO VISIBILITY.

OHZ001>008-015>018-024>027-034-035-043-044-280500-
   NORTHWEST OHIO

CITY           SKY/WX    TMP DP  RH WIND       PRES   REMARKS
DEFIANCE       CLEAR     60  54  80 E3        30.17F
FINDLAY        CLEAR     60  55  83 E8        30.17F
TOLEDO EXPRESS CLEAR     55  54  96 CALM      30.17F
TOLEDO EXEC    CLEAR     59  53  80 E5        30.19S
LIMA           CLEAR     59  55  87 E8        30.17F
$$

OHZ009>014-019>023-028>033-038-089-280500-
   NORTHEAST OHIO

CITY           SKY/WX    TMP DP  RH WIND       PRES   REMARKS
CLE-HOPKINS    CLEAR     57  54  89 SE5       30.21F
CLE-LAKEFRONT  CLEAR     65  54  67 CALM      30.18F
CUY CO. ARPT   NOT AVBL
LORAIN-ELYRIA  CLEAR     54  52  93 CALM      30.20F FOG
ASHTABULA      CLEAR     52  51  97 CALM      30.21S
AKRON-CANTON   CLEAR     58  53  84 NE5       30.20F
WOOSTER        CLEAR     52  50  93 CALM      30.20F
MANSFIELD      CLEAR     57  55  93 NE5       30.20F
YOUNGSTOWN     CLEAR     54  53  97 CALM      30.21S
$$

OHZ042-051>053-060>062-070>072-077>081-280500-
  SOUTHWEST OHIO

CITY           SKY/WX    TMP DP  RH WIND       PRES   REMARKS
CINC-COVINGTON PTCLDY    63  56  78 SE3       30.15F
CINC-LUNKEN    CLEAR     57  57 100 CALM      30.15F
HAMILTON       CLEAR     56  54  93 CALM      30.16F
DAYTON         CLEAR     61  56  83 NE6       30.16F
WRIGHT-PAT AFB CLEAR     63  59  88 CALM      30.15F
DAYTON GENERAL CLEAR     61  55  81 NE3       30.15F
WILMINGTON     CLEAR     57  54  89 SE3       30.16F
$$

OHZ036-037-039>041-045>050-054>059-063>069-073>076-082>088-280500-
  CENTRAL AND SOUTHEAST OHIO

CITY           SKY/WX    TMP DP  RH WIND       PRES   REMARKS
COLUMBUS       CLEAR     61  55  81 CALM      30.16F
OSU AIRPORT    CLEAR     60  55  83 NE6       30.16F
BOLTON FIELD   NOT AVBL
RICKENBACK AFB CLEAR     57  55  91 CALM      30.16F
NEWARK         CLEAR     56  54  93 CALM      30.18S
MARION         CLEAR     57  54  89 E5        30.18F
LANCASTER      CLEAR     55  52  89 CALM      30.17F
ZANESVILLE     CLEAR     59  55  87 CALM      30.18S
NEW PHILLY     CLEAR     55  54  96 CALM      30.19F
$$



USA.gov is the U.S. government's official web portal to all federal, state and local government web resources and services.